| time (UTC) | temp F | wind direction | speed knots | gust knots | rain 1hr in | rain 24hr in | rain mn in | humidity % | barometer mb |
| 20260510202138 | 47 | 180 | 0.0 | 0.0 | 0.00 | 0.00 | 0.00 | 22 | |
| 20260510201637 | 48 | 180 | 0.0 | 0.0 | 0.00 | 0.00 | 0.00 | 21 | |
| 20260510200641 | 50 | 180 | 0.0 | 0.0 | 0.00 | 0.00 | 0.00 | 27 | |
| 20260510200140 | 48 | 180 | 0.0 | 0.0 | 0.00 | 0.00 | 0.00 | 28 | |
| 20260510195642 | 48 | 180 | 0.0 | 0.0 | 0.00 | 0.00 | 0.00 | 25 | |
| 20260510195144 | 47 | 180 | 0.0 | 0.0 | 0.00 | 0.00 | 0.00 | 28 | |
| 20260510194643 | 47 | 180 | 0.0 | 0.0 | 0.00 | 0.00 | 0.00 | 25 | |
| 20260510194145 | 48 | 180 | 0.0 | 0.0 | 0.00 | 0.00 | 0.00 | 25 | |
| 20260510193647 | 48 | 180 | 0.0 | 0.0 | 0.00 | 0.00 | 0.00 | 26 | |
| 20260510193147 | 48 | 180 | 0.0 | 0.0 | 0.00 | 0.00 | 0.00 | 25 | |
| 20260510192648 | 48 | 180 | 0.0 | 0.0 | 0.00 | 0.00 | 0.00 | 26 | |
| 20260510192150 | 50 | 180 | 0.0 | 0.0 | 0.00 | 0.00 | 0.00 | 26 | |
| 20260510191152 | 48 | 180 | 0.0 | 0.0 | 0.00 | 0.00 | 0.00 | 25 | |
| 20260510190153 | 47 | 180 | 0.0 | 0.0 | 0.00 | 0.00 | 0.00 | 23 | |
| 20260510185655 | 47 | 180 | 0.0 | 0.0 | 0.00 | 0.00 | 0.00 | 25 | |
| 20260510185157 | 48 | 180 | 0.0 | 0.0 | 0.00 | 0.00 | 0.00 | 28 | |
| 20260510184656 | 47 | 180 | 0.0 | 0.0 | 0.00 | 0.00 | 0.00 | 29 | |
| 20260510184158 | 45 | 180 | 0.0 | 0.0 | 0.00 | 0.00 | 0.00 | 30 | |
| 20260510183700 | 48 | 180 | 0.0 | 0.0 | 0.00 | 0.00 | 0.00 | 30 | |
| 20260510183159 | 48 | 180 | 0.0 | 0.0 | 0.00 | 0.00 | 0.00 | 31 | |
| 20260510182701 | 47 | 180 | 0.0 | 0.0 | 0.00 | 0.00 | 0.00 | 36 | |
| 20260510182203 | 46 | 180 | 0.0 | 0.0 | 0.00 | 0.00 | 0.00 | 32 | |
| 20260510181702 | 48 | 180 | 0.0 | 0.0 | 0.00 | 0.00 | 0.00 | 31 | |
| 20260510181204 | 47 | 180 | 0.0 | 0.0 | 0.00 | 0.00 | 0.00 | 33 | |
| 20260510180708 | 46 | 180 | 0.0 | 0.0 | 0.00 | 0.00 | 0.00 | 33 | |
| 20260510180205 | 46 | 180 | 0.0 | 0.0 | 0.00 | 0.00 | 0.00 | 32 | |
| 20260510175707 | 48 | 180 | 0.0 | 0.0 | 0.00 | 0.00 | 0.00 | 36 | |
| 20260510175209 | 47 | 180 | 0.0 | 0.0 | 0.00 | 0.00 | 0.00 | 33 | |
| 20260510174708 | 46 | 180 | 0.0 | 0.0 | 0.00 | 0.00 | 0.00 | 35 | |
| 20260510174210 | 46 | 180 | 0.0 | 0.0 | 0.00 | 0.00 | 0.00 | 33 | |
| 20260510173731 | 47 | 180 | 0.0 | 0.0 | 0.00 | 0.00 | 0.00 | 31 | |
| 20260510173211 | 47 | 180 | 0.0 | 0.0 | 0.00 | 0.00 | 0.00 | 36 | |
| 20260510172215 | 47 | 180 | 0.0 | 0.0 | 0.00 | 0.00 | 0.00 | 36 | |
| 20260510171714 | 46 | 180 | 0.0 | 0.0 | 0.00 | 0.00 | 0.00 | 36 | |
| 20260510171216 | 45 | 180 | 0.0 | 0.0 | 0.00 | 0.00 | 0.00 | 37 | |
| 20260510170718 | 46 | 180 | 0.0 | 0.0 | 0.00 | 0.00 | 0.00 | 35 | |
| 20260510170217 | 46 | 180 | 0.0 | 0.0 | 0.00 | 0.00 | 0.00 | 38 | |
| 20260510165719 | 47 | 180 | 0.0 | 0.0 | 0.00 | 0.00 | 0.00 | 35 | |
| 20260510165221 | 48 | 180 | 0.0 | 0.0 | 0.00 | 0.00 | 0.00 | 37 | |
| 20260510164720 | 47 | 180 | 0.0 | 0.0 | 0.00 | 0.00 | 0.00 | 35 | |
| 20260510164222 | 44 | 180 | 0.0 | 0.0 | 0.00 | 0.00 | 0.00 | 39 | |
| 20260510163724 | 46 | 180 | 0.0 | 0.0 | 0.00 | 0.00 | 0.00 | 38 | |
| 20260510163223 | 46 | 180 | 0.0 | 0.0 | 0.00 | 0.00 | 0.00 | 41 | |
| 20260510162725 | 45 | 180 | 0.0 | 0.0 | 0.00 | 0.00 | 0.00 | 38 | |
| 20260510162227 | 47 | 180 | 0.0 | 0.0 | 0.00 | 0.00 | 0.00 | 36 | |
| 20260510161726 | 46 | 180 | 0.0 | 0.0 | 0.00 | 0.00 | 0.00 | 38 | |
| 20260510161228 | 47 | 180 | 0.0 | 0.0 | 0.00 | 0.00 | 0.00 | 39 | |
| 20260510160730 | 46 | 180 | 0.0 | 0.0 | 0.00 | 0.00 | 0.00 | 35 | |
| 20260510155731 | 45 | 180 | 0.0 | 0.0 | 0.00 | 0.00 | 0.00 | 39 | |
| 20260510155233 | 46 | 180 | 0.0 | 0.0 | 0.00 | 0.00 | 0.00 | 37 | |
| 20260510154732 | 45 | 180 | 0.0 | 0.0 | 0.00 | 0.00 | 0.00 | 38 | |
| 20260510154234 | 45 | 180 | 0.0 | 0.0 | 0.00 | 0.00 | 0.00 | 38 | |
| 20260510153736 | 44 | 180 | 0.0 | 0.0 | 0.00 | 0.00 | 0.00 | 39 | |
| 20260510153235 | 46 | 180 | 0.0 | 0.0 | 0.00 | 0.00 | 0.00 | 36 | |
| 20260510152737 | 44 | 180 | 0.0 | 0.0 | 0.00 | 0.00 | 0.00 | 36 | |
| 20260510151736 | 45 | 180 | 0.0 | 0.0 | 0.00 | 0.00 | 0.00 | 39 | |
| 20260510151238 | 45 | 180 | 0.0 | 0.0 | 0.00 | 0.00 | 0.00 | 38 | |
| 20260510150239 | 44 | 180 | 0.0 | 0.0 | 0.00 | 0.00 | 0.00 | 35 | |
| 20260510145741 | 44 | 180 | 0.0 | 0.0 | 0.00 | 0.00 | 0.00 | 37 | |
| 20260510145243 | 45 | 180 | 0.0 | 0.0 | 0.00 | 0.00 | 0.00 | 37 | |
| 20260510144742 | 44 | 180 | 0.0 | 0.0 | 0.00 | 0.00 | 0.00 | 37 | |
| 20260510144244 | 44 | 180 | 0.0 | 0.0 | 0.00 | 0.00 | 0.00 | 41 | |
| 20260510143746 | 44 | 180 | 0.0 | 0.0 | 0.00 | 0.00 | 0.00 | 39 | |
| 20260510143246 | 43 | 180 | 0.0 | 0.0 | 0.00 | 0.00 | 0.00 | 41 | |
| 20260510142747 | 44 | 180 | 0.0 | 0.0 | 0.00 | 0.00 | 0.00 | 43 | |
| 20260510142250 | 44 | 180 | 0.0 | 0.0 | 0.00 | 0.00 | 0.00 | 44 | |
| 20260510141749 | 42 | 180 | 0.0 | 0.0 | 0.00 | 0.00 | 0.00 | 47 | |
| 20260510140753 | 42 | 180 | 0.0 | 0.0 | 0.00 | 0.00 | 0.00 | 49 | |
| 20260510135754 | 42 | 180 | 0.0 | 0.0 | 0.00 | 0.00 | 0.00 | 50 | |
| 20260510135256 | 41 | 180 | 0.0 | 0.0 | 0.00 | 0.00 | 0.00 | 52 | |
| 20260510134755 | 40 | 180 | 0.0 | 0.0 | 0.00 | 0.00 | 0.00 | 53 | |
| 20260510133759 | 40 | 180 | 0.0 | 0.0 | 0.00 | 0.00 | 0.00 | 55 | |
| 20260510133258 | 39 | 180 | 0.0 | 0.0 | 0.00 | 0.00 | 0.00 | 57 | |
| 20260510132305 | 39 | 180 | 0.0 | 0.0 | 0.00 | 0.00 | 0.00 | 59 | |
| 20260510130804 | 39 | 180 | 0.0 | 0.0 | 0.00 | 0.00 | 0.00 | 61 | |
| 20260510125307 | 39 | 180 | 0.0 | 0.0 | 0.00 | 0.00 | 0.00 | 63 | |
| 20260510123808 | 38 | 180 | 0.0 | 0.0 | 0.00 | 0.00 | 0.00 | 62 | |
| 20260510123307 | 38 | 180 | 0.0 | 0.0 | 0.00 | 0.00 | 0.00 | 61 | |
| 20260510122809 | 36 | 180 | 0.0 | 0.0 | 0.00 | 0.00 | 0.00 | 63 | |
| 20260510122311 | 37 | 180 | 0.0 | 0.0 | 0.00 | 0.00 | 0.00 | 64 | |
| 20260510121810 | 37 | 180 | 0.0 | 0.0 | 0.00 | 0.00 | 0.00 | 64 | |
| 20260510121312 | 37 | 180 | 0.0 | 0.0 | 0.00 | 0.00 | 0.00 | 65 | |
| 20260510120313 | 35 | 180 | 0.0 | 0.0 | 0.00 | 0.00 | 0.00 | 65 | |
| 20260510115317 | 35 | 180 | 0.0 | 0.0 | 0.00 | 0.00 | 0.00 | 66 | |
| 20260510114816 | 36 | 180 | 0.0 | 0.0 | 0.00 | 0.00 | 0.00 | 66 | |
| 20260510114318 | 35 | 180 | 0.0 | 0.0 | 0.00 | 0.00 | 0.00 | 67 | |
| 20260510113820 | 35 | 180 | 0.0 | 0.0 | 0.00 | 0.00 | 0.00 | 68 | |
| 20260510113319 | 36 | 180 | 0.0 | 0.0 | 0.00 | 0.00 | 0.00 | 69 | |
| 20260510112821 | 34 | 180 | 0.0 | 0.0 | 0.00 | 0.00 | 0.00 | 69 | |
| 20260510112323 | 35 | 180 | 0.0 | 0.0 | 0.00 | 0.00 | 0.00 | 70 | |
| 20260510111822 | 33 | 180 | 0.0 | 0.0 | 0.00 | 0.00 | 0.00 | 70 | |
| 20260510104828 | 33 | 180 | 0.0 | 0.0 | 0.00 | 0.00 | 0.00 | 72 | |
| 20260510104330 | 33 | 180 | 0.0 | 0.0 | 0.00 | 0.00 | 0.00 | 72 | |
| 20260510103832 | 34 | 180 | 0.0 | 0.0 | 0.00 | 0.00 | 0.00 | 72 | |
| 20260510103331 | 33 | 180 | 0.0 | 0.0 | 0.00 | 0.00 | 0.00 | 72 | |
| 20260510102833 | 33 | 180 | 0.0 | 0.0 | 0.00 | 0.00 | 0.00 | 73 | |
| 20260510102335 | 32 | 180 | 0.0 | 0.0 | 0.00 | 0.00 | 0.00 | 73 | |
| 20260510101336 | 33 | 180 | 0.0 | 0.0 | 0.00 | 0.00 | 0.00 | 73 | |
| 20260510100838 | 33 | 180 | 0.0 | 0.0 | 0.00 | 0.00 | 0.00 | 73 | |
| 20260510100337 | 34 | 180 | 0.0 | 0.0 | 0.00 | 0.00 | 0.00 | 73 | |
| 20260510095341 | 33 | 180 | 0.0 | 0.0 | 0.00 | 0.00 | 0.00 | 73 | |
| 20260510094840 | 33 | 180 | 0.0 | 0.0 | 0.00 | 0.00 | 0.00 | 73 | |
| 20260510094342 | 34 | 180 | 0.0 | 0.0 | 0.00 | 0.00 | 0.00 | 72 | |
| 20260510093844 | 33 | 180 | 0.0 | 0.0 | 0.00 | 0.00 | 0.00 | 72 | |
| 20260510093343 | 33 | 180 | 0.0 | 0.0 | 0.00 | 0.00 | 0.00 | 72 | |
| 20260510092846 | 34 | 180 | 0.0 | 0.0 | 0.00 | 0.00 | 0.00 | 72 | |
| 20260510092347 | 34 | 180 | 0.0 | 0.0 | 0.00 | 0.00 | 0.00 | 72 | |
| 20260510090850 | 33 | 180 | 0.0 | 0.0 | 0.00 | 0.00 | 0.00 | 71 | |
| 20260510090349 | 34 | 180 | 0.0 | 0.0 | 0.00 | 0.00 | 0.00 | 71 | |
| 20260510085851 | 34 | 180 | 0.0 | 0.0 | 0.00 | 0.00 | 0.00 | 70 | |
| 20260510085354 | 35 | 180 | 0.0 | 0.0 | 0.00 | 0.00 | 0.00 | 70 | |
| 20260510084852 | 34 | 180 | 0.0 | 0.0 | 0.00 | 0.00 | 0.00 | 70 | |
| 20260510084354 | 35 | 180 | 0.0 | 0.0 | 0.00 | 0.00 | 0.00 | 70 | |
| 20260510083356 | 35 | 180 | 0.0 | 0.0 | 0.00 | 0.00 | 0.00 | 70 | |
| 20260510082858 | 34 | 180 | 0.0 | 0.0 | 0.00 | 0.00 | 0.00 | 70 | |
| 20260510082400 | 35 | 180 | 0.0 | 0.0 | 0.00 | 0.00 | 0.00 | 71 | |
| 20260510081859 | 35 | 180 | 0.0 | 0.0 | 0.00 | 0.00 | 0.00 | 71 | |
| 20260510081401 | 34 | 180 | 0.0 | 0.0 | 0.00 | 0.00 | 0.00 | 71 | |
| 20260510080903 | 33 | 180 | 0.0 | 0.0 | 0.00 | 0.00 | 0.00 | 70 | |
| 20260510080402 | 35 | 180 | 0.0 | 0.0 | 0.00 | 0.00 | 0.00 | 70 | |
| 20260510075904 | 35 | 180 | 0.0 | 0.0 | 0.00 | 0.00 | 0.00 | 70 | |
| 20260510075406 | 35 | 180 | 0.0 | 0.0 | 0.00 | 0.00 | 0.00 | 70 | |
| 20260510074905 | 35 | 180 | 0.0 | 0.0 | 0.00 | 0.00 | 0.00 | 70 | |
| 20260510074407 | 35 | 180 | 0.0 | 0.0 | 0.00 | 0.00 | 0.00 | 69 | |
| 20260510073909 | 36 | 180 | 0.0 | 0.0 | 0.00 | 0.00 | 0.00 | 69 | |
| 20260510073408 | 34 | 180 | 0.0 | 0.0 | 0.00 | 0.00 | 0.00 | 69 | |
| 20260510072910 | 35 | 180 | 0.0 | 0.0 | 0.00 | 0.00 | 0.00 | 69 | |
| 20260510071911 | 36 | 180 | 0.0 | 0.0 | 0.00 | 0.00 | 0.00 | 68 | |
| 20260510071413 | 36 | 180 | 0.0 | 0.0 | 0.00 | 0.00 | 0.00 | 68 | |
| 20260510070915 | 36 | 180 | 0.0 | 0.0 | 0.00 | 0.00 | 0.00 | 68 | |
| 20260510065915 | 36 | 180 | 0.0 | 0.0 | 0.00 | 0.00 | 0.00 | 68 | |
| 20260510065417 | 36 | 180 | 0.0 | 0.0 | 0.00 | 0.00 | 0.00 | 67 | |
| 20260510063920 | 35 | 180 | 0.0 | 0.0 | 0.00 | 0.00 | 0.00 | 67 | |
| 20260510063419 | 36 | 180 | 0.0 | 0.0 | 0.00 | 0.00 | 0.00 | 67 | |
| 20260510062921 | 35 | 180 | 0.0 | 0.0 | 0.00 | 0.00 | 0.00 | 67 | |
| 20260510062423 | 35 | 180 | 0.0 | 0.0 | 0.00 | 0.00 | 0.00 | 67 | |
| 20260510061424 | 36 | 180 | 0.0 | 0.0 | 0.00 | 0.00 | 0.00 | 67 | |
| 20260510060926 | 36 | 180 | 0.0 | 0.0 | 0.00 | 0.00 | 0.00 | 67 | |
| 20260510060425 | 36 | 180 | 0.0 | 0.0 | 0.00 | 0.00 | 0.00 | 66 | |
| 20260510055927 | 36 | 180 | 0.0 | 0.0 | 0.00 | 0.00 | 0.00 | 66 | |
| 20260510055429 | 38 | 180 | 0.0 | 0.0 | 0.00 | 0.00 | 0.00 | 66 | |
| 20260510054928 | 36 | 180 | 0.0 | 0.0 | 0.00 | 0.00 | 0.00 | 65 | |
| 20260510054430 | 38 | 180 | 0.0 | 0.0 | 0.00 | 0.00 | 0.00 | 65 | |
| 20260510053932 | 38 | 180 | 0.0 | 0.0 | 0.00 | 0.00 | 0.00 | 65 | |
| 20260510052933 | 38 | 180 | 0.0 | 0.0 | 0.00 | 0.00 | 0.00 | 64 | |
| 20260510051934 | 38 | 180 | 0.0 | 0.0 | 0.00 | 0.00 | 0.00 | 63 | |
| 20260510051436 | 39 | 180 | 0.0 | 0.0 | 0.00 | 0.00 | 0.00 | 62 | |
| 20260510050938 | 38 | 180 | 0.0 | 0.0 | 0.00 | 0.00 | 0.00 | 62 | |
| 20260510045939 | 40 | 180 | 0.0 | 0.0 | 0.00 | 0.00 | 0.00 | 60 | |
| 20260510045441 | 39 | 180 | 0.0 | 0.0 | 0.00 | 0.00 | 0.00 | 59 | |
| 20260510044940 | 39 | 180 | 0.0 | 0.0 | 0.00 | 0.00 | 0.00 | 58 | |
| 20260510044442 | 39 | 180 | 0.0 | 0.0 | 0.00 | 0.00 | 0.00 | 58 | |
| 20260510043944 | 40 | 180 | 0.0 | 0.0 | 0.00 | 0.00 | 0.00 | 58 | |
| 20260510042945 | 41 | 180 | 0.0 | 0.0 | 0.00 | 0.00 | 0.00 | 58 | |
| 20260510041448 | 42 | 180 | 0.0 | 0.0 | 0.00 | 0.00 | 0.00 | 56 | |
| 20260510040951 | 42 | 180 | 0.0 | 0.0 | 0.00 | 0.00 | 0.00 | 55 | |
| 20260510040450 | 41 | 180 | 0.0 | 0.0 | 0.00 | 0.00 | 0.00 | 55 | |
| 20260510035952 | 42 | 180 | 0.0 | 0.0 | 0.00 | 0.00 | 0.00 | 55 | |
| 20260510034953 | 42 | 180 | 0.0 | 0.0 | 0.00 | 0.00 | 0.00 | 54 | |
| 20260510034455 | 42 | 180 | 0.0 | 0.0 | 0.00 | 0.00 | 0.00 | 54 | |
| 20260510033957 | 43 | 180 | 0.0 | 0.0 | 0.00 | 0.00 | 0.00 | 54 | |
| 20260510033456 | 42 | 180 | 0.0 | 0.0 | 0.00 | 0.00 | 0.00 | 56 | |
| 20260510032958 | 42 | 180 | 0.0 | 0.0 | 0.00 | 0.00 | 0.00 | 57 | |
| 20260510032500 | 42 | 180 | 0.0 | 0.0 | 0.00 | 0.00 | 0.00 | 57 | |
| 20260510031959 | 41 | 180 | 0.0 | 0.0 | 0.00 | 0.00 | 0.00 | 57 | |
| 20260510031501 | 42 | 180 | 0.0 | 0.0 | 0.00 | 0.00 | 0.00 | 57 | |
| 20260510031003 | 42 | 180 | 0.0 | 0.0 | 0.00 | 0.00 | 0.00 | 56 | |
| 20260510030502 | 43 | 180 | 0.0 | 0.0 | 0.00 | 0.00 | 0.00 | 56 | |
| 20260510030004 | 42 | 180 | 0.0 | 0.0 | 0.00 | 0.00 | 0.00 | 56 | |
| 20260510024507 | 43 | 180 | 0.0 | 0.0 | 0.00 | 0.00 | 0.00 | 56 | |
| 20260510024009 | 43 | 180 | 0.0 | 0.0 | 0.00 | 0.00 | 0.00 | 57 | |
| 20260510023508 | 43 | 180 | 0.0 | 0.0 | 0.00 | 0.00 | 0.00 | 57 | |
| 20260510023010 | 44 | 180 | 0.0 | 0.0 | 0.00 | 0.00 | 0.00 | 57 | |
| 20260510022512 | 43 | 180 | 0.0 | 0.0 | 0.00 | 0.00 | 0.00 | 57 | |
| 20260510022011 | 43 | 180 | 0.0 | 0.0 | 0.00 | 0.00 | 0.00 | 56 | |
| 20260510021513 | 43 | 180 | 0.0 | 0.0 | 0.00 | 0.00 | 0.00 | 56 | |
| 20260510021015 | 44 | 180 | 0.0 | 0.0 | 0.00 | 0.00 | 0.00 | 56 | |
| 20260510020016 | 45 | 180 | 0.0 | 0.0 | 0.00 | 0.00 | 0.00 | 56 | |
| 20260510015518 | 44 | 180 | 0.0 | 0.0 | 0.00 | 0.00 | 0.00 | 56 | |
| 20260510015017 | 46 | 180 | 0.0 | 0.0 | 0.00 | 0.00 | 0.00 | 57 | |
| 20260510014519 | 45 | 180 | 0.0 | 0.0 | 0.00 | 0.00 | 0.00 | 57 | |
| 20260510013520 | 46 | 180 | 0.0 | 0.0 | 0.00 | 0.00 | 0.00 | 57 | |
| 20260510013022 | 45 | 180 | 0.0 | 0.0 | 0.00 | 0.00 | 0.00 | 56 | |
| 20260510012524 | 45 | 180 | 0.0 | 0.0 | 0.00 | 0.00 | 0.00 | 55 | |
| 20260510012023 | 46 | 180 | 0.0 | 0.0 | 0.00 | 0.00 | 0.00 | 54 | |
| 20260510011525 | 46 | 180 | 0.0 | 0.0 | 0.00 | 0.00 | 0.00 | 53 | |
| 20260510010028 | 46 | 180 | 0.0 | 0.0 | 0.00 | 0.00 | 0.00 | 54 | |
| 20260510005530 | 46 | 180 | 0.0 | 0.0 | 0.00 | 0.00 | 0.00 | 56 | |
| 20260510004531 | 46 | 180 | 0.0 | 0.0 | 0.00 | 0.00 | 0.00 | 58 | |
| 20260510004033 | 47 | 180 | 0.0 | 0.0 | 0.00 | 0.00 | 0.00 | 58 | |
| 20260510003034 | 46 | 180 | 0.0 | 0.0 | 0.00 | 0.00 | 0.00 | 57 | |
| 20260510002536 | 49 | 180 | 0.0 | 0.0 | 0.00 | 0.00 | 0.00 | 58 | |
| 20260510002035 | 48 | 180 | 0.0 | 0.0 | 0.00 | 0.00 | 0.00 | 58 | |
| 20260510001039 | 51 | 180 | 0.0 | 0.0 | 0.00 | 0.00 | 0.00 | 56 | |
| 20260510000538 | 51 | 180 | 0.0 | 0.0 | 0.00 | 0.00 | 0.00 | 55 | |
| 20260510000040 | 51 | 180 | 0.0 | 0.0 | 0.00 | 0.00 | 0.00 | 54 | |
| 20260509235543 | 51 | 180 | 0.0 | 0.0 | 0.00 | 0.00 | 0.00 | 54 | |
| 20260509235042 | 51 | 180 | 0.0 | 0.0 | 0.00 | 0.00 | 0.00 | 54 | |
| 20260509234544 | 51 | 180 | 0.0 | 0.0 | 0.00 | 0.00 | 0.00 | 55 | |
| 20260509234046 | 51 | 180 | 0.0 | 0.0 | 0.00 | 0.00 | 0.00 | 56 | |
| 20260509233545 | 52 | 180 | 0.0 | 0.0 | 0.00 | 0.00 | 0.00 | 58 | |
| 20260509233047 | 52 | 180 | 0.0 | 0.0 | 0.00 | 0.00 | 0.00 | 61 | |
| 20260509232549 | 52 | 180 | 0.0 | 0.0 | 0.00 | 0.00 | 0.00 | 63 | |
| 20260509232048 | 51 | 180 | 0.0 | 0.0 | 0.00 | 0.00 | 0.00 | 64 | |
| 20260509231550 | 51 | 180 | 0.0 | 0.0 | 0.00 | 0.00 | 0.00 | 64 | |
| 20260509231052 | 51 | 180 | 0.0 | 0.0 | 0.00 | 0.00 | 0.00 | 66 | |
| 20260509230551 | 51 | 180 | 0.0 | 0.0 | 0.00 | 0.00 | 0.00 | 66 | |
| 20260509230053 | 51 | 180 | 0.0 | 0.0 | 0.00 | 0.00 | 0.00 | 66 | |
| 20260509225555 | 51 | 180 | 0.0 | 0.0 | 0.00 | 0.00 | 0.00 | 66 | |
| 20260509225054 | 51 | 180 | 0.0 | 0.0 | 0.00 | 0.00 | 0.00 | 66 | |
| 20260509224556 | 52 | 180 | 0.0 | 0.0 | 0.00 | 0.00 | 0.00 | 66 | |
| 20260509224058 | 52 | 180 | 0.0 | 0.0 | 0.00 | 0.00 | 0.00 | 66 | |
| 20260509223557 | 52 | 180 | 0.0 | 0.0 | 0.00 | 0.00 | 0.00 | 66 | |
| 20260509222601 | 50 | 180 | 0.0 | 0.0 | 0.00 | 0.00 | 0.00 | 65 | |
| 20260509222100 | 52 | 180 | 0.0 | 0.0 | 0.00 | 0.00 | 0.00 | 69 | |
| 20260509221602 | 51 | 180 | 0.0 | 0.0 | 0.00 | 0.00 | 0.00 | 68 | |
| 20260509220603 | 51 | 180 | 0.0 | 0.0 | 0.00 | 0.00 | 0.00 | 68 | |
| 20260509220105 | 52 | 180 | 0.0 | 0.0 | 0.00 | 0.00 | 0.00 | 68 | |
| 20260509215106 | 53 | 180 | 0.0 | 0.0 | 0.00 | 0.00 | 0.00 | 67 | |
| 20260509214608 | 53 | 180 | 0.0 | 0.0 | 0.00 | 0.00 | 0.00 | 69 | |
| 20260509214110 | 50 | 180 | 0.0 | 0.0 | 0.00 | 0.00 | 0.00 | 71 | |
| 20260509213609 | 50 | 180 | 0.0 | 0.0 | 0.00 | 0.00 | 0.00 | 71 | |
| 20260509213111 | 49 | 180 | 0.0 | 0.0 | 0.00 | 0.00 | 0.00 | 72 | |
| 20260509212613 | 49 | 180 | 0.0 | 0.0 | 0.00 | 0.00 | 0.00 | 73 | |
| 20260509212112 | 48 | 180 | 0.0 | 0.0 | 0.00 | 0.00 | 0.00 | 74 | |
| 20260509211614 | 47 | 180 | 0.0 | 0.0 | 0.00 | 0.00 | 0.00 | 73 | |
| 20260509211116 | 48 | 180 | 0.0 | 0.0 | 0.00 | 0.00 | 0.00 | 73 | |
| 20260509210615 | 47 | 180 | 0.0 | 0.0 | 0.00 | 0.00 | 0.00 | 73 | |
| 20260509210117 | 47 | 180 | 0.0 | 0.0 | 0.00 | 0.00 | 0.00 | 72 | |
| 20260509204620 | 50 | 180 | 0.0 | 0.0 | 0.00 | 0.00 | 0.00 | 61 | |
| 20260509203621 | 56 | 180 | 0.0 | 0.0 | 0.00 | 0.00 | 0.00 | 49 | |
| 20260509203123 | 55 | 180 | 0.0 | 0.0 | 0.00 | 0.00 | 0.00 | 45 | |
| 20260509202625 | 57 | 180 | 0.0 | 0.0 | 0.00 | 0.00 | 0.00 | 43 |